TimeEST,TemperatureF,Dew PointF,Humidity,Sea Level PressureIn,VisibilityMPH,Wind Direction,Wind SpeedMPH,Gust SpeedMPH,PrecipitationIn,Events,Conditions,WindDirDegrees,DateUTC
12:53 AM,39.9,28.0,63,29.70,10.0,South,12.7,-,N/A,,Clear,190,2014-01-13 05:53:00
1:53 AM,39.9,28.0,63,29.69,10.0,SSW,10.4,-,N/A,,Clear,200,2014-01-13 06:53:00
2:53 AM,39.9,28.9,65,29.69,10.0,South,9.2,-,N/A,,Clear,190,2014-01-13 07:53:00
3:53 AM,39.9,28.9,65,29.67,10.0,South,10.4,-,N/A,,Clear,190,2014-01-13 08:53:00
4:53 AM,39.9,28.9,65,29.64,10.0,SSW,11.5,18.4,N/A,,Clear,200,2014-01-13 09:53:00
5:53 AM,42.1,28.9,60,29.63,10.0,SSW,11.5,19.6,N/A,,Clear,200,2014-01-13 10:53:00
6:53 AM,42.1,28.9,60,29.62,10.0,SSW,12.7,-,N/A,,Clear,200,2014-01-13 11:53:00
7:53 AM,41.0,28.9,62,29.62,10.0,South,10.4,-,N/A,,Clear,190,2014-01-13 12:53:00
8:53 AM,42.1,28.9,60,29.62,10.0,SSW,8.1,-,N/A,,Clear,200,2014-01-13 13:53:00
9:53 AM,43.0,30.0,60,29.60,10.0,SSW,10.4,18.4,N/A,,Clear,210,2014-01-13 14:53:00
10:53 AM,44.1,30.0,58,29.61,10.0,SSW,9.2,-,N/A,,Clear,210,2014-01-13 15:53:00
11:53 AM,45.0,30.9,58,29.58,10.0,SSW,10.4,-,N/A,,Scattered Clouds,200,2014-01-13 16:53:00
12:53 PM,45.0,30.9,58,29.56,10.0,SSW,8.1,-,N/A,,Mostly Cloudy,210,2014-01-13 17:53:00
1:53 PM,45.0,30.9,58,29.54,10.0,SSW,10.4,-,N/A,,Overcast,210,2014-01-13 18:53:00
2:53 PM,45.0,32.0,60,29.54,10.0,SSW,9.2,-,N/A,,Overcast,210,2014-01-13 19:53:00
3:53 PM,44.1,32.0,63,29.56,10.0,SW,6.9,-,N/A,,Overcast,220,2014-01-13 20:53:00
4:53 PM,44.1,33.1,65,29.57,10.0,SW,8.1,-,N/A,,Overcast,230,2014-01-13 21:53:00
5:53 PM,42.1,33.1,70,29.59,10.0,SW,6.9,-,N/A,,Mostly Cloudy,230,2014-01-13 22:53:00
6:53 PM,42.1,33.1,70,29.60,10.0,SW,5.8,-,N/A,,Mostly Cloudy,230,2014-01-13 23:53:00
7:53 PM,41.0,33.1,73,29.62,10.0,SW,8.1,-,N/A,,Clear,230,2014-01-14 00:53:00
8:53 PM,39.9,32.0,73,29.63,10.0,WSW,8.1,-,N/A,,Clear,250,2014-01-14 01:53:00
9:53 PM,37.9,30.9,76,29.65,10.0,West,13.8,-,N/A,,Clear,270,2014-01-14 02:53:00
10:53 PM,36.0,30.0,79,29.66,9.0,West,8.1,-,N/A,,Partly Cloudy,260,2014-01-14 03:53:00
11:08 PM,37.4,30.2,75,29.65,8.0,West,9.2,-,N/A,,Mostly Cloudy,260,2014-01-14 04:08:00
11:43 PM,35.6,30.2,81,29.65,7.0,West,10.4,-,N/A,,Partly Cloudy,270,2014-01-14 04:43:00
11:53 PM,35.1,30.0,82,29.67,7.0,West,8.1,-,N/A,,Scattered Clouds,270,2014-01-14 04:53:00